EJU13JH LIRN-LDDU

Flight info

Callsign EJU13JH
Flight time 0h 57m
Altitude 34000
Route GALTI DCT LUNAR DCT BUMOK DCT TOPNO DCT AIOSA
Aircraft A320/M-SDE2E3FGHIJ1RWXYZ/LB1

Departure

Time 2026-04-30 17:41
Airport Naples International Airport (LIRN)

Arrival

Time 2026-04-30 18:38
Airport Dubrovnik Ruđer Bošković Airport (LDDU)
Time Latitude Longitude Altitude Speed Heading
2026-04-30 17:39 40.97076 14.32447 8459 ft 249 kts 213°
2026-04-30 17:41 40.84658 14.23546 14593 ft 284 kts 181°
2026-04-30 17:42 40.80471 14.24956 14971 ft 335 kts 167°
2026-04-30 17:42 40.73237 14.27786 16129 ft 374 kts 167°
2026-04-30 17:43 40.68187 14.29728 17416 ft 382 kts 168°
2026-04-30 17:44 40.61095 14.34665 19172 ft 407 kts 129°
2026-04-30 17:44 40.59453 14.45441 20734 ft 418 kts 79°
2026-04-30 17:46 40.61480 14.64783 23138 ft 437 kts 80°
2026-04-30 17:47 40.63106 14.80895 24834 ft 451 kts 80°
2026-04-30 17:48 40.64748 14.97477 26404 ft 463 kts 80°
2026-04-30 17:48 40.66011 15.10213 27529 ft 472 kts 79°
2026-04-30 17:49 40.67707 15.27546 28862 ft 482 kts 80°
2026-04-30 17:50 40.69249 15.43748 30014 ft 492 kts 80°
2026-04-30 17:51 40.70520 15.57247 30938 ft 497 kts 80°
2026-04-30 17:52 40.73426 15.70197 31800 ft 488 kts 56°
2026-04-30 17:53 40.83003 15.88221 33618 ft 478 kts 49°
2026-04-30 17:54 40.90625 16.02368 34155 ft 462 kts 48°
2026-04-30 17:55 40.98904 16.15029 34156 ft 450 kts 33°
2026-04-30 17:56 41.08350 16.25857 34162 ft 451 kts 33°
2026-04-30 17:58 41.22533 16.42274 34152 ft 451 kts 33°
2026-04-30 18:00 41.41478 16.64255 34148 ft 453 kts 33°
2026-04-30 18:01 41.53328 16.78132 34155 ft 454 kts 33°
2026-04-30 18:02 41.67589 16.94865 34146 ft 455 kts 33°
2026-04-30 18:03 41.74677 17.03236 33049 ft 450 kts 33°
2026-04-30 18:04 41.81669 17.11519 31432 ft 444 kts 33°
2026-04-30 18:05 41.90824 17.22402 29393 ft 434 kts 33°
2026-04-30 18:06 41.99804 17.32787 27511 ft 418 kts 31°
2026-04-30 18:07 42.08601 17.42709 25535 ft 408 kts 33°
2026-04-30 18:08 42.15019 17.50042 23993 ft 399 kts 34°
2026-04-30 18:09 42.23306 17.59413 22156 ft 382 kts 33°
2026-04-30 18:10 42.31529 17.67697 20040 ft 361 kts 32°
2026-04-30 18:11 42.39464 17.75736 18269 ft 352 kts 33°
2026-04-30 18:11 42.45180 17.81597 16656 ft 334 kts 33°
2026-04-30 18:12 42.50596 17.87159 14574 ft 321 kts 34°
2026-04-30 18:13 42.54513 17.89518 13065 ft 308 kts 359°
2026-04-30 18:13 42.59132 17.85755 11061 ft 307 kts 301°
2026-04-30 18:14 42.61449 17.79807 9296 ft 303 kts 299°
2026-04-30 18:15 42.64917 17.72950 7198 ft 286 kts 330°
2026-04-30 18:15 42.70237 17.72621 5698 ft 257 kts 29°
2026-04-30 18:16 42.72526 17.75866 5270 ft 227 kts 64°
2026-04-30 18:16 42.73019 17.79966 4777 ft 222 kts 97°
2026-04-30 18:17 42.72600 17.81973 4650 ft 222 kts 112°
2026-04-30 18:17 42.71966 17.83894 4524 ft 223 kts 112°
2026-04-30 18:17 42.70710 17.87735 4268 ft 222 kts 112°
2026-04-30 18:18 42.70085 17.89655 4147 ft 222 kts 112°
2026-04-30 18:18 42.69461 17.91572 4022 ft 221 kts 112°
2026-04-30 18:18 42.68838 17.93480 3916 ft 221 kts 112°
2026-04-30 18:18 42.68213 17.95386 3827 ft 220 kts 112°
2026-04-30 18:19 42.67602 17.97282 3825 ft 219 kts 110°
2026-04-30 18:19 42.66994 17.99188 3804 ft 219 kts 114°
2026-04-30 18:19 42.66317 18.01007 3784 ft 210 kts 116°
2026-04-30 18:19 42.65650 18.02715 3749 ft 200 kts 116°
2026-04-30 18:20 42.65001 18.04366 3719 ft 197 kts 117°
2026-04-30 18:20 42.64355 18.06008 3551 ft 197 kts 116°
2026-04-30 18:20 42.63714 18.07638 3348 ft 193 kts 116°
2026-04-30 18:20 42.63088 18.09228 3074 ft 190 kts 116°
2026-04-30 18:21 42.62474 18.10786 2820 ft 185 kts 116°
2026-04-30 18:21 42.61875 18.12304 2573 ft 179 kts 115°
2026-04-30 18:21 42.61308 18.13738 2352 ft 166 kts 115°
2026-04-30 18:21 42.60781 18.15070 2131 ft 155 kts 114°
2026-04-30 18:22 42.60284 18.16323 1901 ft 148 kts 113°
2026-04-30 18:22 42.59353 18.18718 1490 ft 141 kts 112°
2026-04-30 18:22 42.58897 18.19889 1327 ft 140 kts 112°
2026-04-30 18:23 42.58430 18.21038 1148 ft 138 kts 111°
2026-04-30 18:23 42.57989 18.22183 990 ft 137 kts 112°
2026-04-30 18:23 42.57527 18.23318 801 ft 138 kts 111°
2026-04-30 18:23 42.57064 18.24482 644 ft 148 kts 115°
2026-04-30 18:24 42.55932 18.27311 2071 ft 177 kts 112°
2026-04-30 18:24 42.55313 18.28778 2689 ft 187 kts 116°
2026-04-30 18:24 42.54649 18.30373 3200 ft 200 kts 116°
2026-04-30 18:25 42.53833 18.31948 3776 ft 209 kts 132°
2026-04-30 18:25 42.51253 18.33164 4017 ft 212 kts 191°
2026-04-30 18:25 42.49830 18.32564 4017 ft 217 kts 198°
2026-04-30 18:26 42.46891 18.31231 4011 ft 225 kts 198°
2026-04-30 18:26 42.45408 18.30560 4014 ft 225 kts 198°
2026-04-30 18:26 42.43924 18.29891 4002 ft 225 kts 198°
2026-04-30 18:27 42.41126 18.28138 4001 ft 224 kts 230°
2026-04-30 18:27 42.40469 18.26268 4015 ft 222 kts 264°
2026-04-30 18:28 42.41225 18.22289 4004 ft 222 kts 294°
2026-04-30 18:28 42.41838 18.20376 4004 ft 221 kts 295°
2026-04-30 18:28 42.43156 18.16344 4008 ft 251 kts 295°
2026-04-30 18:29 42.43872 18.14171 4008 ft 254 kts 295°
2026-04-30 18:29 42.46041 18.07604 4016 ft 254 kts 295°
2026-04-30 18:30 42.47243 18.03970 4003 ft 254 kts 295°
2026-04-30 18:30 42.48932 17.98851 4009 ft 255 kts 295°
2026-04-30 18:31 42.49864 17.96841 4004 ft 251 kts 318°
2026-04-30 18:31 42.52988 17.94962 4008 ft 250 kts 345°
2026-04-30 18:32 42.56327 17.93656 4007 ft 249 kts 345°
2026-04-30 18:32 42.58004 17.93048 4005 ft 249 kts 352°
2026-04-30 18:32 42.61182 17.94411 4018 ft 243 kts 34°
2026-04-30 18:33 42.62549 17.95687 4018 ft 237 kts 36°
2026-04-30 18:33 42.64027 17.99484 4021 ft 236 kts 83°
2026-04-30 18:33 42.64156 18.01637 3992 ft 222 kts 85°
2026-04-30 18:34 42.64234 18.03697 3867 ft 216 kts 86°
2026-04-30 18:34 42.63913 18.07655 3404 ft 213 kts 115°
2026-04-30 18:34 42.63150 18.09373 3168 ft 210 kts 121°
2026-04-30 18:35 42.62385 18.11010 2890 ft 201 kts 119°
2026-04-30 18:35 42.61723 18.12632 2630 ft 189 kts 115°
2026-04-30 18:35 42.61162 18.14162 2452 ft 174 kts 113°
2026-04-30 18:36 42.60107 18.16837 2015 ft 152 kts 115°
2026-04-30 18:36 42.59605 18.18078 1751 ft 148 kts 112°
2026-04-30 18:36 42.58664 18.20457 1288 ft 139 kts 111°
2026-04-30 18:37 42.58204 18.21596 1086 ft 136 kts 111°
2026-04-30 18:37 42.57759 18.22735 930 ft 137 kts 111°
2026-04-30 18:37 42.57456 18.23501 787 ft 139 kts 112°
2026-04-30 18:37 42.56836 18.25061 580 ft 139 kts 112°
2026-04-30 18:38 42.56539 18.25807 539 ft 129 kts 110°
2026-04-30 18:38 42.56163 18.26828 536 ft 113 kts 120°
2026-04-30 18:38 42.55877 18.27502 531 ft 57 kts 117°
2026-04-30 18:38 42.55706 18.27928 532 ft 42 kts 118°
2026-04-30 18:39 42.55592 18.28121 533 ft 19 kts 139°
2026-04-30 18:39 42.55544 18.28166 533 ft 6 kts 170°
2026-04-30 18:39 42.55511 18.28153 534 ft 4 kts 211°
2026-04-30 18:39 42.55492 18.28135 534 ft 3 kts 217°
2026-04-30 18:40 42.55472 18.28106 534 ft 7 kts 236°
2026-04-30 18:40 42.55480 18.28008 534 ft 14 kts 295°
2026-04-30 18:40 42.55530 18.27882 534 ft 16 kts 298°
2026-04-30 18:40 42.55587 18.27740 534 ft 18 kts 298°
2026-04-30 18:41 42.55651 18.27578 534 ft 21 kts 298°
2026-04-30 18:41 42.55722 18.27400 534 ft 23 kts 298°
2026-04-30 18:41 42.55784 18.27244 534 ft 15 kts 297°
2026-04-30 18:41 42.55837 18.27108 534 ft 17 kts 298°
2026-04-30 18:42 42.55893 18.26966 534 ft 11 kts 298°
2026-04-30 18:42 42.55955 18.26808 534 ft 8 kts 298°
2026-04-30 18:42 42.55980 18.26746 534 ft 7 kts 298°
2026-04-30 18:45 42.56086 18.26301 534 ft 0 kts 208°